Location: �clusier
(49.9361°N, 2.7869°E)
Time: 07:52:48
(UTC+00:00)

Cosmos 2360 Rocket - Pass Details

Date: 16 June 2021
Orbit: 835 x 843 km, 71.0° (Epoch: 02 August)

Event Time Altitude Azimuth Distance (km) Brightness Sun altitude
Rises 21:42:18 0° 207° (SSW) 3,383 5.0 -11.4°
Reaches altitude 10° 21:44:43 10° 207° (SSW) 2,451 4.3 -11.6°
Maximum altitude 21:50:22 89° 291° (WNW) 846 2.2 -12.1°
Drops below altitude 10° 21:56:02 10° 29° (NNE) 2,461 5.1 -12.5°
Sets 21:58:29 0° 30° (NNE) 3,399 5.9 -12.6°
